Location: Newark
(48.1236°N, 0.7169°W)
Time: 02:12:38
(UTC+00:00)

Envisat - Pass Details

Date: 26 November 2019
Orbit: 764 x 766 km, 98.1° (Epoch: 07 December)

Event Time Altitude Azimuth Distance (km) Brightness Sun altitude
Rises 19:37:28 0° 222° (SW) 3,222 6.7 -33.2°
Reaches altitude 10° 19:41:28 10° 254° (WSW) 2,303 6.2 -33.9°
Maximum altitude 19:43:16 12° 275° (W) 2,183 6.1 -34.2°
Drops below altitude 10° 19:45:04 10° 296° (WNW) 2,309 6.2 -34.5°
Sets 19:49:07 0° 328° (NNW) 3,242 6.7 -35.2°
